EW8359 Weather Reports


time (UTC)temp
C
wind
direction
speed
KPH
gust
KPH
rain 1hr
cm
rain 24hr
cm
rain mn
cm
humidity
%
barometer
mb
20260504050009 1 220 0.0 0.0 0.00 0.00 0.00 82 1006.9
20260504044521 1 220 0.0 0.0 0.00 0.00 0.00 82 1006.9
20260504043006 1 220 0.0 0.0 0.00 0.00 0.00 82 1006.8
20260504041502 1 220 0.0 0.0 0.00 0.00 0.00 84 1006.6
20260504040107 1 209 0.0 0.0 0.00 0.00 0.00 83 1006.6
20260504040001 1 209 0.0 0.0 0.00 0.00 0.00 83 1006.6
20260504034603 1 209 0.0 0.0 0.00 0.00 0.00 81 1006.4
20260504033113 1 207 0.0 3.2 0.00 0.00 0.00 81 1006.4
20260504031554 2 302 0.0 1.6 0.00 0.00 0.00 81 1006.2
20260504030054 2 303 0.0 0.0 0.00 0.00 0.00 81 1006.3
20260504024557 2 303 0.0 0.0 0.00 0.00 0.00 79 1006.3
20260504023054 2 303 0.0 0.0 0.00 0.00 0.00 81 1006.2
20260504021551 2 307 0.0 3.2 0.00 0.00 0.00 81 1006.2
20260504020049 2 308 0.0 0.0 0.00 0.00 0.00 80 1006.3
20260504014549 2 308 0.0 3.2 0.00 0.03 0.00 79 1006.3
20260504013050 2 309 0.0 0.0 0.00 0.03 0.00 77 1006.2
20260504011543 3 309 0.0 0.0 0.00 0.03 0.00 74 1006.1
20260504010048 4 309 0.0 0.0 0.00 0.03 0.00 70 1006.0
20260504004536 5 309 0.0 0.0 0.00 0.10 0.00 68 1005.6
20260504003035 5 309 0.0 0.0 0.00 0.10 0.00 64 1005.5
20260504001537 6 304 0.0 0.0 0.00 0.10 0.00 60 1005.3
20260504000037 6 306 0.0 0.0 0.00 0.10 0.00 58 1005.0
20260503234534 7 284 0.0 8.0 0.00 0.13 0.00 54 1004.8
20260503233032 7 293 0.0 3.2 0.00 0.13 0.00 51 1004.6
20260503231532 8 304 0.0 22.5 0.00 0.13 0.00 51 1004.5
20260503230032 8 236 0.0 14.5 0.00 0.13 0.00 50 1004.3
20260503224530 8 329 0.0 11.3 0.00 0.18 0.00 48 1004.1
20260503223030 9 175 4.8 19.3 0.00 0.18 0.00 47 1003.9
20260503221629 9 274 3.2 14.5 0.00 0.18 0.00 47 1003.8
20260503220029 10 35 3.2 24.1 0.00 0.18 0.00 45 1003.6
20260503214528 10 261 1.6 16.1 0.00 0.25 0.00 48 1003.4
20260503213032 10 360 3.2 16.1 0.00 0.25 0.00 48 1003.5
20260503211527 11 351 3.2 16.1 0.00 0.25 0.00 46 1003.3
20260503210026 11 307 0.0 29.0 0.00 0.25 0.00 46 1003.0
20260503204527 12 29 1.6 12.9 0.00 0.43 0.00 46 1002.8
20260503203026 10 246 1.6 19.3 0.00 0.43 0.00 49 1002.8
20260503201530 11 250 0.0 14.5 0.00 0.43 0.00 50 1002.8
20260503200031 11 163 1.6 14.5 0.00 0.43 0.00 47 1002.7
20260503194527 12 268 6.4 20.9 0.00 0.51 0.00 49 1002.7
20260503193018 11 273 3.2 11.3 0.00 0.51 0.00 53 1002.8
20260503191517 10 324 3.2 24.1 0.00 0.51 0.00 54 1003.0
20260503190019 10 55 6.4 17.7 0.00 0.51 0.00 57 1003.0
20260503184515 10 32 0.0 16.1 0.00 0.61 0.00 63 1003.1
20260503183014 10 298 0.0 11.3 0.00 0.61 0.00 63 1003.2
20260503181510 10 351 1.6 14.5 0.00 0.61 0.00 63 1003.2
20260503180135 8 341 1.6 12.9 0.00 0.61 0.00 66 1003.2
20260503174559 8 285 0.0 8.0 0.00 0.61 0.00 70 1003.4
20260503173059 8 62 1.6 16.1 0.00 0.61 0.00 72 1003.5
20260503171551 7 339 4.8 17.7 0.00 0.61 0.00 71 1003.5
20260503081600 5 21 0.0 0.0 0.00 0.71 0.00 95 1006.1
20260503071556 5 28 0.0 0.0 0.00 0.71 0.00 95 1006.4